Year,Month,Day,Hour,Minute,Value (Times are PST for temperature in C)
2022,05,04,00,00,8.10
2022,05,04,00,01,8.10
2022,05,04,00,02,8.10
2022,05,04,00,03,8.10
2022,05,04,00,04,8.10
2022,05,04,00,05,8.10
2022,05,04,00,06,8.10
2022,05,04,00,07,8.10
2022,05,04,00,08,8.10
2022,05,04,00,09,8.10
2022,05,04,00,10,8.10
2022,05,04,00,11,8.10
2022,05,04,00,12,8.10
2022,05,04,00,13,8.10
2022,05,04,00,14,8.10
2022,05,04,00,15,8.20
2022,05,04,00,16,8.20
2022,05,04,00,17,8.20
2022,05,04,00,18,8.20
2022,05,04,00,19,8.20
2022,05,04,00,20,8.20
2022,05,04,00,21,8.20
2022,05,04,00,22,8.20
2022,05,04,00,23,8.20
2022,05,04,00,24,8.20
2022,05,04,00,25,8.10
2022,05,04,00,26,8.10
2022,05,04,00,27,8.20
2022,05,04,00,28,8.20
2022,05,04,00,29,8.20
2022,05,04,00,30,8.10
2022,05,04,00,31,8.10
2022,05,04,00,32,8.20
2022,05,04,00,33,8.20
2022,05,04,00,34,8.20
2022,05,04,00,35,8.20
2022,05,04,00,36,8.20
2022,05,04,00,37,8.10
2022,05,04,00,38,8.10
2022,05,04,00,39,8.10
2022,05,04,00,40,8.10
2022,05,04,00,41,8.10
2022,05,04,00,42,8.10
2022,05,04,00,43,8.10
2022,05,04,00,44,8.10
2022,05,04,00,45,8.10
2022,05,04,00,46,8.10
2022,05,04,00,47,8.10
2022,05,04,00,48,8.10
2022,05,04,00,49,8.10
2022,05,04,00,50,8.10
2022,05,04,00,51,8.10
2022,05,04,00,52,8.10
2022,05,04,00,53,8.00
2022,05,04,00,54,8.10
2022,05,04,00,55,8.00
2022,05,04,00,56,8.00
2022,05,04,00,57,8.00
2022,05,04,00,58,8.00
2022,05,04,00,59,8.00
2022,05,04,01,00,8.00
2022,05,04,01,01,8.00
2022,05,04,01,02,8.00
2022,05,04,01,03,8.00
2022,05,04,01,04,8.00
2022,05,04,01,05,8.00
2022,05,04,01,06,8.00
2022,05,04,01,07,8.00
2022,05,04,01,08,8.00
2022,05,04,01,09,8.00
2022,05,04,01,10,8.00
2022,05,04,01,11,8.00
2022,05,04,01,12,8.00
2022,05,04,01,13,8.00
2022,05,04,01,14,8.00
2022,05,04,01,15,8.00
2022,05,04,01,16,8.00
2022,05,04,01,17,8.00
2022,05,04,01,18,8.00
2022,05,04,01,19,8.00
2022,05,04,01,20,8.00
2022,05,04,01,21,8.00
2022,05,04,01,22,8.00
2022,05,04,01,23,8.00
2022,05,04,01,24,8.00
2022,05,04,01,25,8.00
2022,05,04,01,26,8.00
2022,05,04,01,27,8.00
2022,05,04,01,28,8.00
2022,05,04,01,29,8.00
2022,05,04,01,30,8.00
2022,05,04,01,31,8.00
2022,05,04,01,32,8.00
2022,05,04,01,33,8.00
2022,05,04,01,34,8.00
2022,05,04,01,35,8.00
2022,05,04,01,36,8.00
2022,05,04,01,37,8.00
2022,05,04,01,38,8.00
2022,05,04,01,39,8.00
2022,05,04,01,40,8.00
2022,05,04,01,41,7.90
2022,05,04,01,42,7.90
2022,05,04,01,43,7.90
2022,05,04,01,44,7.90
2022,05,04,01,45,7.90
2022,05,04,01,46,7.90
2022,05,04,01,47,7.90
2022,05,04,01,48,7.90
2022,05,04,01,49,7.90
2022,05,04,01,50,7.90
2022,05,04,01,51,7.90
2022,05,04,01,52,7.90
2022,05,04,01,53,7.90
2022,05,04,01,54,7.90
2022,05,04,01,55,7.90
2022,05,04,01,56,7.90
2022,05,04,01,57,7.90
2022,05,04,01,58,7.90
2022,05,04,01,59,7.90
2022,05,04,02,00,7.90
2022,05,04,02,01,7.90
2022,05,04,02,02,7.90
2022,05,04,02,03,7.90
2022,05,04,02,04,7.90
2022,05,04,02,05,7.90
2022,05,04,02,06,7.90
2022,05,04,02,07,7.90
2022,05,04,02,08,7.90
2022,05,04,02,09,7.90
2022,05,04,02,10,7.90
2022,05,04,02,11,7.90
2022,05,04,02,12,7.90
2022,05,04,02,13,7.90
2022,05,04,02,14,7.90
2022,05,04,02,15,7.90
2022,05,04,02,16,7.90
2022,05,04,02,17,7.90
2022,05,04,02,18,7.90
2022,05,04,02,19,7.80
2022,05,04,02,20,7.80
2022,05,04,02,21,7.80
2022,05,04,02,22,7.80
2022,05,04,02,23,7.80
2022,05,04,02,24,7.80
2022,05,04,02,25,7.80
2022,05,04,02,26,7.90
2022,05,04,02,27,7.90
2022,05,04,02,28,7.90
2022,05,04,02,29,7.90
2022,05,04,02,30,7.90
2022,05,04,02,31,7.90
2022,05,04,02,32,7.90
2022,05,04,02,33,7.90
2022,05,04,02,34,7.80
2022,05,04,02,35,7.80
2022,05,04,02,36,7.80
2022,05,04,02,37,7.80
2022,05,04,02,38,7.80
2022,05,04,02,39,7.80
2022,05,04,02,40,7.80
2022,05,04,02,41,7.80
2022,05,04,02,42,7.80
2022,05,04,02,43,7.80
2022,05,04,02,44,7.80
2022,05,04,02,45,7.80
2022,05,04,02,46,7.80
2022,05,04,02,47,7.80
2022,05,04,02,48,7.80
2022,05,04,02,49,7.80
2022,05,04,02,50,7.80
2022,05,04,02,51,7.80
2022,05,04,02,52,7.80
2022,05,04,02,53,7.80
2022,05,04,02,54,7.80
2022,05,04,02,55,7.80
2022,05,04,02,56,7.80
2022,05,04,02,57,7.80
2022,05,04,02,58,7.80
2022,05,04,02,59,7.80
2022,05,04,03,00,7.80
2022,05,04,03,01,7.80
2022,05,04,03,02,7.80
2022,05,04,03,03,7.80
2022,05,04,03,04,7.70
2022,05,04,03,05,7.70
2022,05,04,03,06,7.70
2022,05,04,03,07,7.70
2022,05,04,03,08,7.70
2022,05,04,03,09,7.70
2022,05,04,03,10,7.70
2022,05,04,03,11,7.70
2022,05,04,03,12,7.70
2022,05,04,03,13,7.70
2022,05,04,03,14,7.70
2022,05,04,03,15,7.70
2022,05,04,03,16,7.70
2022,05,04,03,17,7.60
2022,05,04,03,18,7.60
2022,05,04,03,19,7.60
2022,05,04,03,20,7.60
2022,05,04,03,21,7.60
2022,05,04,03,22,7.60
2022,05,04,03,23,7.60
2022,05,04,03,24,7.60
2022,05,04,03,25,7.60
2022,05,04,03,26,7.60
2022,05,04,03,27,7.60
2022,05,04,03,28,7.60
2022,05,04,03,29,7.60
2022,05,04,03,30,7.60
2022,05,04,03,31,7.60
2022,05,04,03,32,7.60
2022,05,04,03,33,7.60
2022,05,04,03,34,7.60
2022,05,04,03,35,7.60
2022,05,04,03,36,7.60
2022,05,04,03,37,7.60
2022,05,04,03,38,7.50
2022,05,04,03,39,7.50
2022,05,04,03,40,7.50
2022,05,04,03,41,7.50
2022,05,04,03,42,7.50
2022,05,04,03,43,7.50
2022,05,04,03,44,7.50
2022,05,04,03,45,7.50
2022,05,04,03,46,7.50
2022,05,04,03,47,7.50
2022,05,04,03,48,7.50
2022,05,04,03,49,7.50
2022,05,04,03,50,7.50
2022,05,04,03,51,7.50
2022,05,04,03,52,7.50
2022,05,04,03,53,7.50
2022,05,04,03,54,7.50
2022,05,04,03,55,7.50
2022,05,04,03,56,7.50
2022,05,04,03,57,7.50
2022,05,04,03,58,7.50
2022,05,04,03,59,7.40
2022,05,04,04,00,7.40
2022,05,04,04,01,7.40
2022,05,04,04,02,7.40
2022,05,04,04,03,7.40
2022,05,04,04,04,7.40
2022,05,04,04,05,7.50
2022,05,04,04,06,7.40
2022,05,04,04,07,7.40
2022,05,04,04,08,7.50
2022,05,04,04,09,7.50
2022,05,04,04,10,7.50
2022,05,04,04,11,7.50
2022,05,04,04,12,7.50
2022,05,04,04,13,7.50
2022,05,04,04,14,7.50
2022,05,04,04,15,7.50
2022,05,04,04,16,7.50
2022,05,04,04,17,7.50
2022,05,04,04,18,7.50
2022,05,04,04,19,7.50
2022,05,04,04,20,7.50
2022,05,04,04,21,7.50
2022,05,04,04,22,7.50
2022,05,04,04,23,7.50
2022,05,04,04,24,7.50
2022,05,04,04,25,7.50
2022,05,04,04,26,7.60
2022,05,04,04,27,7.60
2022,05,04,04,28,7.60
2022,05,04,04,29,7.60
2022,05,04,04,30,7.60
2022,05,04,04,31,7.60
2022,05,04,04,32,7.60
2022,05,04,04,33,7.70
2022,05,04,04,34,7.70
2022,05,04,04,35,7.70
2022,05,04,04,36,7.70
2022,05,04,04,37,7.70
2022,05,04,04,38,7.70
2022,05,04,04,39,7.70
2022,05,04,04,40,7.70
2022,05,04,04,41,7.70
2022,05,04,04,42,7.70
2022,05,04,04,43,7.70
2022,05,04,04,44,7.70
2022,05,04,04,45,7.70
2022,05,04,04,46,7.70
2022,05,04,04,47,7.70
2022,05,04,04,48,7.70
2022,05,04,04,49,7.70
2022,05,04,04,50,7.70
2022,05,04,04,51,7.70
2022,05,04,04,52,7.60
2022,05,04,04,53,7.60
2022,05,04,04,54,7.60
2022,05,04,04,55,7.60
2022,05,04,04,56,7.60
2022,05,04,04,57,7.60
2022,05,04,04,58,7.60
2022,05,04,04,59,7.60
2022,05,04,05,00,7.60
2022,05,04,05,01,7.60
2022,05,04,05,02,7.60
2022,05,04,05,03,7.60
2022,05,04,05,04,7.60
2022,05,04,05,05,7.60
2022,05,04,05,06,7.60
2022,05,04,05,07,7.60
2022,05,04,05,08,7.60
2022,05,04,05,09,7.60
2022,05,04,05,10,7.60
2022,05,04,05,11,7.60
2022,05,04,05,12,7.60
2022,05,04,05,13,7.60
2022,05,04,05,14,7.60
2022,05,04,05,15,7.50
2022,05,04,05,16,7.50
2022,05,04,05,17,7.60
2022,05,04,05,18,7.60
2022,05,04,05,19,7.60
2022,05,04,05,20,7.50
2022,05,04,05,21,7.50
2022,05,04,05,22,7.50
2022,05,04,05,23,7.50
2022,05,04,05,24,7.50
2022,05,04,05,25,7.50
2022,05,04,05,26,7.50
2022,05,04,05,27,7.50
2022,05,04,05,28,7.60
2022,05,04,05,29,7.50
2022,05,04,05,30,7.60
2022,05,04,05,31,7.60
2022,05,04,05,32,7.60
2022,05,04,05,33,7.60
2022,05,04,05,34,7.60
2022,05,04,05,35,7.60
2022,05,04,05,36,7.60
2022,05,04,05,37,7.60
2022,05,04,05,38,7.60
2022,05,04,05,39,7.60
2022,05,04,05,40,7.60
2022,05,04,05,41,7.60
2022,05,04,05,42,7.60
2022,05,04,05,43,7.60
2022,05,04,05,44,7.60
2022,05,04,05,45,7.60
2022,05,04,05,46,7.60
2022,05,04,05,47,7.60
2022,05,04,05,48,7.60
2022,05,04,05,49,7.60
2022,05,04,05,50,7.50
2022,05,04,05,51,7.50
2022,05,04,05,52,7.50
2022,05,04,05,53,7.50
2022,05,04,05,54,7.50
2022,05,04,05,55,7.50
2022,05,04,05,56,7.50
2022,05,04,05,57,7.50
2022,05,04,05,58,7.50
2022,05,04,05,59,7.50
2022,05,04,06,00,7.50
2022,05,04,06,01,7.50
2022,05,04,06,02,7.50
2022,05,04,06,03,7.50
2022,05,04,06,04,7.50
2022,05,04,06,05,7.50
2022,05,04,06,06,7.50
2022,05,04,06,07,7.50
2022,05,04,06,08,7.50
2022,05,04,06,09,7.50
2022,05,04,06,10,7.50
2022,05,04,06,11,7.50
2022,05,04,06,12,7.50
2022,05,04,06,13,7.50
2022,05,04,06,14,7.50
2022,05,04,06,15,7.50
2022,05,04,06,16,7.50
2022,05,04,06,17,7.50
2022,05,04,06,18,7.50
2022,05,04,06,19,7.50
2022,05,04,06,20,7.60
2022,05,04,06,21,7.60
2022,05,04,06,22,7.60
2022,05,04,06,23,7.60
2022,05,04,06,24,7.60
2022,05,04,06,25,7.60
2022,05,04,06,26,7.60
2022,05,04,06,27,7.60
2022,05,04,06,28,7.60
2022,05,04,06,29,7.60
2022,05,04,06,30,7.60
2022,05,04,06,31,7.60
2022,05,04,06,32,7.60
2022,05,04,06,33,7.60
2022,05,04,06,34,7.60
2022,05,04,06,35,7.60
2022,05,04,06,36,7.60
2022,05,04,06,37,7.60
2022,05,04,06,38,7.60
2022,05,04,06,39,7.60
2022,05,04,06,40,7.60
2022,05,04,06,41,7.60
2022,05,04,06,42,7.60
2022,05,04,06,43,7.60
2022,05,04,06,44,7.60
2022,05,04,06,45,7.60
2022,05,04,06,46,7.60
2022,05,04,06,47,7.60
2022,05,04,06,48,7.60
2022,05,04,06,49,7.60
2022,05,04,06,50,7.70
2022,05,04,06,51,7.70
2022,05,04,06,52,7.70
2022,05,04,06,53,7.70
2022,05,04,06,54,7.70
2022,05,04,06,55,7.70
2022,05,04,06,56,7.70
2022,05,04,06,57,7.70
2022,05,04,06,58,7.70
2022,05,04,06,59,7.70
2022,05,04,07,00,7.70
2022,05,04,07,01,7.70
2022,05,04,07,02,7.70
2022,05,04,07,03,7.70
2022,05,04,07,04,7.70
2022,05,04,07,05,7.70
2022,05,04,07,06,7.70
2022,05,04,07,07,7.70
2022,05,04,07,08,7.70
2022,05,04,07,09,7.70
2022,05,04,07,10,7.70
2022,05,04,07,11,7.70
2022,05,04,07,12,7.70
2022,05,04,07,13,7.70
2022,05,04,07,14,7.70
2022,05,04,07,15,7.70
2022,05,04,07,16,7.80
2022,05,04,07,17,7.70
2022,05,04,07,18,7.70
2022,05,04,07,19,7.70
2022,05,04,07,20,7.70
2022,05,04,07,21,7.70
2022,05,04,07,22,7.70
2022,05,04,07,23,7.70
2022,05,04,07,24,7.70
2022,05,04,07,25,7.70
2022,05,04,07,26,7.70
2022,05,04,07,27,7.70
2022,05,04,07,28,7.70
2022,05,04,07,29,7.70
2022,05,04,07,30,7.70
2022,05,04,07,31,7.70
2022,05,04,07,32,7.70
2022,05,04,07,33,7.70
2022,05,04,07,34,7.70
2022,05,04,07,35,7.70
2022,05,04,07,36,7.70
2022,05,04,07,37,7.70
2022,05,04,07,38,7.80
2022,05,04,07,39,7.70
2022,05,04,07,40,7.80
2022,05,04,07,41,7.70
2022,05,04,07,42,7.70
2022,05,04,07,43,7.70
2022,05,04,07,44,7.70
2022,05,04,07,45,7.70
2022,05,04,07,46,7.70
2022,05,04,07,47,7.70
2022,05,04,07,48,7.70
2022,05,04,07,49,7.70
2022,05,04,07,50,7.70
2022,05,04,07,51,7.70
2022,05,04,07,52,7.70
2022,05,04,07,53,7.70
2022,05,04,07,54,7.70
2022,05,04,07,55,7.70
2022,05,04,07,56,7.70
2022,05,04,07,57,7.70
2022,05,04,07,58,7.80
2022,05,04,07,59,7.80
2022,05,04,08,00,7.80
2022,05,04,08,01,7.80
2022,05,04,08,02,7.80
2022,05,04,08,03,7.80
2022,05,04,08,04,7.80
2022,05,04,08,05,7.80
2022,05,04,08,06,7.80
2022,05,04,08,07,7.80
2022,05,04,08,08,7.80
2022,05,04,08,09,7.80
2022,05,04,08,10,7.80
2022,05,04,08,11,7.70
2022,05,04,08,12,7.80
2022,05,04,08,13,7.80
2022,05,04,08,14,7.80
2022,05,04,08,15,7.80
2022,05,04,08,16,7.80
2022,05,04,08,17,7.80
2022,05,04,08,18,7.80
2022,05,04,08,19,7.80
2022,05,04,08,20,7.80
2022,05,04,08,21,7.80
2022,05,04,08,22,7.80
2022,05,04,08,23,7.80
2022,05,04,08,24,7.80
2022,05,04,08,25,7.80
2022,05,04,08,26,7.80
2022,05,04,08,27,7.80
2022,05,04,08,28,7.80
2022,05,04,08,29,7.80
2022,05,04,08,30,7.80
2022,05,04,08,31,7.90
2022,05,04,08,32,7.90
2022,05,04,08,33,7.90
2022,05,04,08,34,7.90
2022,05,04,08,35,7.90
2022,05,04,08,36,7.90
2022,05,04,08,37,7.90
2022,05,04,08,38,7.90
2022,05,04,08,39,7.90
2022,05,04,08,40,7.90
2022,05,04,08,41,7.90
2022,05,04,08,42,7.80
2022,05,04,08,43,7.90
2022,05,04,08,44,7.80
2022,05,04,08,45,7.80
2022,05,04,08,46,7.80
2022,05,04,08,47,7.80
2022,05,04,08,48,7.90
2022,05,04,08,49,7.90
2022,05,04,08,50,7.90
2022,05,04,08,51,7.90
2022,05,04,08,52,7.80
2022,05,04,08,53,7.80
2022,05,04,08,54,7.80
2022,05,04,08,55,7.80
2022,05,04,08,56,7.80
2022,05,04,08,57,7.80
2022,05,04,08,58,7.80
2022,05,04,08,59,7.80
2022,05,04,09,00,7.80
2022,05,04,09,01,7.80
2022,05,04,09,02,7.80
2022,05,04,09,03,7.80
2022,05,04,09,04,7.80
2022,05,04,09,05,7.80
2022,05,04,09,06,7.80
2022,05,04,09,07,7.80
2022,05,04,09,08,7.80
2022,05,04,09,09,7.80
2022,05,04,09,10,7.80
2022,05,04,09,11,7.80
2022,05,04,09,12,7.80
2022,05,04,09,13,7.80
2022,05,04,09,14,7.80
2022,05,04,09,15,7.90
2022,05,04,09,16,7.90
2022,05,04,09,17,7.90
2022,05,04,09,18,7.90
2022,05,04,09,19,7.90
2022,05,04,09,20,7.90
2022,05,04,09,21,7.90
2022,05,04,09,22,8.00
2022,05,04,09,23,8.00
2022,05,04,09,24,8.00
2022,05,04,09,25,8.00
2022,05,04,09,26,8.10
2022,05,04,09,27,8.10
2022,05,04,09,28,8.10
2022,05,04,09,29,8.10
2022,05,04,09,30,8.10
2022,05,04,09,31,8.10
2022,05,04,09,32,8.10
2022,05,04,09,33,8.10
2022,05,04,09,34,8.10
2022,05,04,09,35,8.10
2022,05,04,09,36,8.10
2022,05,04,09,37,8.10
2022,05,04,09,38,8.10
2022,05,04,09,39,8.10
2022,05,04,09,40,8.20
2022,05,04,09,41,8.20
2022,05,04,09,42,8.20
2022,05,04,09,43,8.20
2022,05,04,09,44,8.10
2022,05,04,09,45,8.10
2022,05,04,09,46,8.10
2022,05,04,09,47,8.10
2022,05,04,09,48,8.10
2022,05,04,09,49,8.10
2022,05,04,09,50,8.10
2022,05,04,09,51,8.10
2022,05,04,09,52,8.20
2022,05,04,09,53,8.20
2022,05,04,09,54,8.20
2022,05,04,09,55,8.20
2022,05,04,09,56,8.20
2022,05,04,09,57,8.20
2022,05,04,09,58,8.20
2022,05,04,09,59,8.20
2022,05,04,10,00,8.20
2022,05,04,10,01,8.20
2022,05,04,10,02,8.30
2022,05,04,10,03,8.30
2022,05,04,10,04,8.20
2022,05,04,10,05,8.20
2022,05,04,10,06,8.20
2022,05,04,10,07,8.20
2022,05,04,10,08,8.20
2022,05,04,10,09,8.20
2022,05,04,10,10,8.30
2022,05,04,10,11,8.30
2022,05,04,10,12,8.30
2022,05,04,10,13,8.30
2022,05,04,10,14,8.30
2022,05,04,10,15,8.40
2022,05,04,10,16,8.40
2022,05,04,10,17,8.40
2022,05,04,10,18,8.40
2022,05,04,10,19,8.50
2022,05,04,10,20,8.50
2022,05,04,10,21,8.50
2022,05,04,10,22,8.50
2022,05,04,10,23,8.50
2022,05,04,10,24,8.50
2022,05,04,10,25,8.60
2022,05,04,10,26,8.60
2022,05,04,10,27,8.60
2022,05,04,10,28,8.60
2022,05,04,10,29,8.50
2022,05,04,10,30,8.50
2022,05,04,10,31,8.50
2022,05,04,10,32,8.50
2022,05,04,10,33,8.50
2022,05,04,10,34,8.50
2022,05,04,10,35,8.60
2022,05,04,10,36,8.60
2022,05,04,10,37,8.60
2022,05,04,10,38,8.60
2022,05,04,10,39,8.50
2022,05,04,10,40,8.50
2022,05,04,10,41,8.50
2022,05,04,10,42,8.50
2022,05,04,10,43,8.50
2022,05,04,10,44,8.50
2022,05,04,10,45,8.50
2022,05,04,10,46,8.50
2022,05,04,10,47,8.40
2022,05,04,10,48,8.40
2022,05,04,10,49,8.40
2022,05,04,10,50,8.40
2022,05,04,10,51,8.40
2022,05,04,10,52,8.30
2022,05,04,10,53,8.30
2022,05,04,10,54,8.40
2022,05,04,10,55,8.40
2022,05,04,10,56,8.40
2022,05,04,10,57,8.40
2022,05,04,10,58,8.40
2022,05,04,10,59,8.40
2022,05,04,11,00,8.40
2022,05,04,11,01,8.40
2022,05,04,11,02,8.40
2022,05,04,11,03,8.40
2022,05,04,11,04,8.40
2022,05,04,11,05,8.50
2022,05,04,11,06,8.50
2022,05,04,11,07,8.50
2022,05,04,11,08,8.60
2022,05,04,11,09,8.60
2022,05,04,11,10,8.60
2022,05,04,11,11,8.60
2022,05,04,11,12,8.50
2022,05,04,11,13,8.50
2022,05,04,11,14,8.40
2022,05,04,11,15,8.40
2022,05,04,11,16,8.40
2022,05,04,11,17,8.40
2022,05,04,11,18,8.50
2022,05,04,11,19,8.50
2022,05,04,11,20,8.50
2022,05,04,11,21,8.50
2022,05,04,11,22,8.60
2022,05,04,11,23,8.60
2022,05,04,11,24,8.70
2022,05,04,11,25,8.70
2022,05,04,11,26,8.80
2022,05,04,11,27,8.90
2022,05,04,11,28,8.90
2022,05,04,11,29,9.00
2022,05,04,11,30,9.00
2022,05,04,11,31,9.10
2022,05,04,11,32,9.10
2022,05,04,11,33,9.10
2022,05,04,11,34,9.10
2022,05,04,11,35,9.20
2022,05,04,11,36,9.20
2022,05,04,11,37,9.20
2022,05,04,11,38,9.20
2022,05,04,11,39,9.20
2022,05,04,11,40,9.30
2022,05,04,11,41,9.30
2022,05,04,11,42,9.30
2022,05,04,11,43,9.40
2022,05,04,11,44,9.40
2022,05,04,11,45,9.50
2022,05,04,11,46,9.60
2022,05,04,11,47,9.60
2022,05,04,11,48,9.60
2022,05,04,11,49,9.70
2022,05,04,11,50,9.80
2022,05,04,11,51,9.80
2022,05,04,11,52,9.80
2022,05,04,11,53,9.90
2022,05,04,11,54,10.00
2022,05,04,11,55,10.00
2022,05,04,11,56,10.10
2022,05,04,11,57,10.10
2022,05,04,11,58,10.10
2022,05,04,11,59,10.20
2022,05,04,12,00,10.20
2022,05,04,12,01,10.20
2022,05,04,12,02,10.20
2022,05,04,12,03,10.20
2022,05,04,12,04,10.20
2022,05,04,12,05,10.30
2022,05,04,12,06,10.30
2022,05,04,12,07,10.30
2022,05,04,12,08,10.40
2022,05,04,12,09,10.40
2022,05,04,12,10,10.50
2022,05,04,12,11,10.50
2022,05,04,12,12,10.50
2022,05,04,12,13,10.60
2022,05,04,12,14,10.50
2022,05,04,12,15,10.50
2022,05,04,12,16,10.50
2022,05,04,12,17,10.60
2022,05,04,12,18,10.50
2022,05,04,12,19,10.60
2022,05,04,12,20,10.60
2022,05,04,12,21,10.60
2022,05,04,12,22,10.60
2022,05,04,12,23,10.70
2022,05,04,12,24,10.70
2022,05,04,12,25,10.70
2022,05,04,12,26,10.70
2022,05,04,12,27,10.70
2022,05,04,12,28,10.70
2022,05,04,12,29,10.60
2022,05,04,12,30,10.60
2022,05,04,12,31,10.70
2022,05,04,12,32,10.70
2022,05,04,12,33,10.70
2022,05,04,12,34,10.70
2022,05,04,12,35,10.80
2022,05,04,12,36,10.80
2022,05,04,12,37,10.80
2022,05,04,12,38,10.80
2022,05,04,12,39,10.80
2022,05,04,12,40,10.80
2022,05,04,12,41,10.90
2022,05,04,12,42,11.00
2022,05,04,12,43,11.00
2022,05,04,12,44,11.10
2022,05,04,12,45,11.20
2022,05,04,12,46,11.30
2022,05,04,12,47,11.30
2022,05,04,12,48,11.40
2022,05,04,12,49,11.50
2022,05,04,12,50,11.60
2022,05,04,12,51,11.70
2022,05,04,12,52,11.80
2022,05,04,12,53,11.80
2022,05,04,12,54,12.00
2022,05,04,12,55,12.00
2022,05,04,12,56,12.10
2022,05,04,12,57,12.20
2022,05,04,12,58,12.20
2022,05,04,12,59,12.30
2022,05,04,13,00,12.30
2022,05,04,13,01,12.30
2022,05,04,13,02,12.20
2022,05,04,13,03,12.00
2022,05,04,13,04,11.80
2022,05,04,13,05,11.70
2022,05,04,13,06,11.70
2022,05,04,13,07,11.70
2022,05,04,13,08,11.70
2022,05,04,13,09,11.70
2022,05,04,13,10,11.70
2022,05,04,13,11,11.70
2022,05,04,13,12,11.70
2022,05,04,13,13,11.70
2022,05,04,13,14,11.70
2022,05,04,13,15,11.70
2022,05,04,13,16,11.60
2022,05,04,13,17,11.60
2022,05,04,13,18,11.50
2022,05,04,13,19,11.50
2022,05,04,13,20,11.40
2022,05,04,13,21,11.40
2022,05,04,13,22,11.30
2022,05,04,13,23,11.20
2022,05,04,13,24,11.20
2022,05,04,13,25,11.10
2022,05,04,13,26,11.10
2022,05,04,13,27,11.00
2022,05,04,13,28,11.10
2022,05,04,13,29,11.10
2022,05,04,13,30,11.10
2022,05,04,13,31,11.10
2022,05,04,13,32,11.10
2022,05,04,13,33,11.10
2022,05,04,13,34,11.10
2022,05,04,13,35,11.10
2022,05,04,13,36,11.00
2022,05,04,13,37,11.00
2022,05,04,13,38,11.00
2022,05,04,13,39,11.00
2022,05,04,13,40,10.90
2022,05,04,13,41,10.90
2022,05,04,13,42,10.90
2022,05,04,13,43,10.90
2022,05,04,13,44,11.00
2022,05,04,13,45,11.00
2022,05,04,13,46,10.90
2022,05,04,13,47,10.90
2022,05,04,13,48,10.90
2022,05,04,13,49,10.90
2022,05,04,13,50,10.90
2022,05,04,13,51,10.90
2022,05,04,13,52,10.90
2022,05,04,13,53,10.90
2022,05,04,13,54,10.90
2022,05,04,13,55,10.90
2022,05,04,13,56,10.90
2022,05,04,16,47,9.80
2022,05,04,16,48,9.80
2022,05,04,16,49,9.80
2022,05,04,16,50,9.80
2022,05,04,16,51,9.80
2022,05,04,16,52,9.80
2022,05,04,16,53,9.80
2022,05,04,16,54,9.80
2022,05,04,16,55,9.80
2022,05,04,16,56,9.80
2022,05,04,16,57,9.80
2022,05,04,16,58,9.80
2022,05,04,16,59,9.80
2022,05,04,17,00,9.80
2022,05,04,17,01,9.80
2022,05,04,17,02,9.80
2022,05,04,17,03,9.80
2022,05,04,17,04,9.80
2022,05,04,17,05,9.80
2022,05,04,17,06,9.70
2022,05,04,17,07,9.80
2022,05,04,17,08,9.80
2022,05,04,17,09,9.80
2022,05,04,17,10,9.80
2022,05,04,17,11,9.80
2022,05,04,17,12,9.80
2022,05,04,17,13,9.80
2022,05,04,17,14,9.80
2022,05,04,17,15,9.80
2022,05,04,17,16,9.80
2022,05,04,17,17,9.80
2022,05,04,17,18,9.90
2022,05,04,17,19,9.90
2022,05,04,17,20,9.90
2022,05,04,17,21,9.90
2022,05,04,17,22,9.90
2022,05,04,17,23,9.90
2022,05,04,17,24,9.90
2022,05,04,17,25,9.90
2022,05,04,17,26,10.00
2022,05,04,17,27,10.00
2022,05,04,17,28,10.00
2022,05,04,17,29,10.10
2022,05,04,17,30,10.10
2022,05,04,17,31,10.10
2022,05,04,17,32,10.10
2022,05,04,17,33,10.10
2022,05,04,17,34,10.10
2022,05,04,17,35,10.20
2022,05,04,17,36,10.20
2022,05,04,17,37,10.20
2022,05,04,17,38,10.20
2022,05,04,17,39,10.20
2022,05,04,17,40,10.20
2022,05,04,17,41,10.20
2022,05,04,17,42,10.20
2022,05,04,17,43,10.20
2022,05,04,17,44,10.20
2022,05,04,17,45,10.20
2022,05,04,17,46,10.20
2022,05,04,17,47,10.20
2022,05,04,17,48,10.20
2022,05,04,17,49,10.20
2022,05,04,17,50,10.10
2022,05,04,17,51,10.10
2022,05,04,17,52,10.10
2022,05,04,17,53,10.10
2022,05,04,17,54,10.10
2022,05,04,17,55,10.00
2022,05,04,17,56,10.00
2022,05,04,17,57,10.00
2022,05,04,17,58,10.00
2022,05,04,17,59,9.90
2022,05,04,18,00,9.90
2022,05,04,18,01,9.90
2022,05,04,18,02,9.90
2022,05,04,18,03,9.90
2022,05,04,18,04,9.90
2022,05,04,18,05,9.90
2022,05,04,18,06,9.90
2022,05,04,18,07,9.90
2022,05,04,18,08,9.80
2022,05,04,18,09,9.90
2022,05,04,18,10,9.90
2022,05,04,18,11,9.90
2022,05,04,18,12,9.90
2022,05,04,18,13,9.90
2022,05,04,18,14,9.90
2022,05,04,18,15,9.90
2022,05,04,18,16,9.90
2022,05,04,18,17,9.90
2022,05,04,18,18,10.00
2022,05,04,18,19,10.00
2022,05,04,18,20,10.00
2022,05,04,18,21,10.00
2022,05,04,18,22,9.90
2022,05,04,18,23,9.90
2022,05,04,18,24,9.90
2022,05,04,18,25,9.90
2022,05,04,18,26,9.90
2022,05,04,18,27,9.90
2022,05,04,18,28,10.00
2022,05,04,18,29,10.00
2022,05,04,18,30,10.00
2022,05,04,18,31,10.00
2022,05,04,18,32,10.00
2022,05,04,18,33,10.10
2022,05,04,18,34,10.10
2022,05,04,18,35,10.10
2022,05,04,18,36,10.10
2022,05,04,18,37,10.10
2022,05,04,18,38,10.10
2022,05,04,18,39,10.10
2022,05,04,18,40,10.10
2022,05,04,18,41,10.10
2022,05,04,18,42,10.10
2022,05,04,18,43,10.10
2022,05,04,18,44,10.10
2022,05,04,18,45,10.10
2022,05,04,18,46,10.10
2022,05,04,18,47,10.00
2022,05,04,18,48,10.00
2022,05,04,18,49,10.00
2022,05,04,18,50,10.00
2022,05,04,18,51,10.00
2022,05,04,18,52,10.00
2022,05,04,18,53,10.00
2022,05,04,18,54,10.10
2022,05,04,18,55,10.10
2022,05,04,18,56,10.10
2022,05,04,18,57,10.10
2022,05,04,18,58,10.10
2022,05,04,18,59,10.10
2022,05,04,19,00,10.10
2022,05,04,19,01,10.10
2022,05,04,19,02,10.20
2022,05,04,19,03,10.20
2022,05,04,19,04,10.20
2022,05,04,19,05,10.20
2022,05,04,19,06,10.20
2022,05,04,19,07,10.10
2022,05,04,19,08,10.10
2022,05,04,19,09,10.10
2022,05,04,19,10,10.10
2022,05,04,19,11,10.10
2022,05,04,19,12,10.00
2022,05,04,19,13,10.00
2022,05,04,19,14,10.00
2022,05,04,19,15,10.00
2022,05,04,19,16,10.00
2022,05,04,19,17,9.90
2022,05,04,19,18,9.90
2022,05,04,19,19,9.90
2022,05,04,19,20,9.90
2022,05,04,19,21,10.00
2022,05,04,19,22,10.00
2022,05,04,19,23,10.00
2022,05,04,19,24,10.00
2022,05,04,19,25,10.10
2022,05,04,19,26,10.10
2022,05,04,19,27,10.10
2022,05,04,19,28,10.10
2022,05,04,19,29,10.10
2022,05,04,19,30,10.10
2022,05,04,19,31,10.10
2022,05,04,19,32,10.20
2022,05,04,19,33,10.10
2022,05,04,19,34,10.10
2022,05,04,19,35,10.20
2022,05,04,19,36,10.20
2022,05,04,19,37,10.20
2022,05,04,19,38,10.20
2022,05,04,19,39,10.20
2022,05,04,19,40,10.20
2022,05,04,19,41,10.20
2022,05,04,19,42,10.20
2022,05,04,19,43,10.20
2022,05,04,19,44,10.20
2022,05,04,19,45,10.20
2022,05,04,19,46,10.20
2022,05,04,19,47,10.30
2022,05,04,19,48,10.30
2022,05,04,19,49,10.30
2022,05,04,19,50,10.30
2022,05,04,19,51,10.30
2022,05,04,19,52,10.30
2022,05,04,19,53,10.30
2022,05,04,19,54,10.30
2022,05,04,19,55,10.30
2022,05,04,19,56,10.30
2022,05,04,19,57,10.30
2022,05,04,19,58,10.30
2022,05,04,19,59,10.30
2022,05,04,20,00,10.30
2022,05,04,20,01,10.30
2022,05,04,20,02,10.30
2022,05,04,20,03,10.30
2022,05,04,20,04,10.30
2022,05,04,20,05,10.30
2022,05,04,20,06,10.30
2022,05,04,20,07,10.30
2022,05,04,20,08,10.30
2022,05,04,20,09,10.30
2022,05,04,20,10,10.30
2022,05,04,20,11,10.30
2022,05,04,20,12,10.30
2022,05,04,20,13,10.30
2022,05,04,20,14,10.30
2022,05,04,20,15,10.30
2022,05,04,20,16,10.30
2022,05,04,20,17,10.30
2022,05,04,20,18,10.30
2022,05,04,20,19,10.30
2022,05,04,20,20,10.30
2022,05,04,20,21,10.30
2022,05,04,20,22,10.30
2022,05,04,20,23,10.30
2022,05,04,20,24,10.30
2022,05,04,20,25,10.30
2022,05,04,20,26,10.30
2022,05,04,20,27,10.30
2022,05,04,20,28,10.30
2022,05,04,20,29,10.30
2022,05,04,20,30,10.30
2022,05,04,20,31,10.30
2022,05,04,20,32,10.30
2022,05,04,20,33,10.30
2022,05,04,20,34,10.30
2022,05,04,20,35,10.30
2022,05,04,20,36,10.30
2022,05,04,20,37,10.30
2022,05,04,20,38,10.30
2022,05,04,20,39,10.30
2022,05,04,20,40,10.30
2022,05,04,20,41,10.30
2022,05,04,20,42,10.40
2022,05,04,20,43,10.40